Location: Blackwall
(51.5097°N, 0.0016°W)
Time: 00:28:27
(UTC+00:00)

Cosmos 1726 Rocket - Pass Details

Date: 15 May 2026
Orbit: 555 x 660 km, 82.5° (Epoch: 9 June)

Event Time Altitude Azimuth Distance (km) Brightness Sun altitude
Exits shadow 21:25:50 19° 145° (SE) 1,363 4.7 -12.2°
Maximum altitude 21:28:08 34° 92° (E) 928 4.2 -12.4°
Drops below altitude 10° 21:31:49 10° 27° (NNE) 1,854 6.4 -12.7°
Sets 21:34:08 0° 18° (NNE) 2,761 7.5 -12.9°
